When you browse on this site, cookies collect data to enhance your experience and personalize the content and advertising you see.
Visit our Privacy Policy to learn more. By continuing to use the site, you agree to this use of cookies and data.
  • In Hungary
  • List of Countries
  • For 7 days
  • Water Temperature
  • Weather Map
  • News
  • Weather Widgets
  • user-avatar
    Login

    Hourly Weather Lezhovka

    Today, 28 May, Thursday

    Time Temperature Precipitation Wind Pressure Humidity
    00:00 +13°C° 0 mm 1 mps 756 mmHg 69%
    01:00 +13°C° 0 mm 1 mps 756 mmHg 71%
    02:00 +12°C° 0 mm 1 mps 756 mmHg 71%
    03:00 +12°C° 0 mm 1 mps 756 mmHg 72%
    04:00 +12°C° 0 mm 1 mps 756 mmHg 73%
    05:00 +12°C° 0 mm 1 mps 755 mmHg 75%
    06:00 +13°C° 0 mm 1 mps 756 mmHg 69%
    07:00 +15°C° 0 mm 1 mps 756 mmHg 63%
    08:00 +18°C° 0 mm 1 mps 756 mmHg 58%
    09:00 +18°C° 0.1 mm 2 mps 756 mmHg 56%
    10:00 +19°C° 0.1 mm 2 mps 755 mmHg 53%
    11:00 +20°C° 0.1 mm 2 mps 755 mmHg 51%
    12:00 +20°C° 0.3 mm 2 mps 755 mmHg 52%
    13:00 +20°C° 0.3 mm 2 mps 755 mmHg 53%
    14:00 +20°C° 0.3 mm 2 mps 755 mmHg 54%
    15:00 +19°C° 0.5 mm 3 mps 755 mmHg 63%
    16:00 +18°C° 0.5 mm 3 mps 755 mmHg 72%
    17:00 +16°C° 0.5 mm 3 mps 755 mmHg 81%
    18:00 +14°C° 0.1 mm 3 mps 755 mmHg 83%
    19:00 +14°C° 0.1 mm 2 mps 755 mmHg 84%
    20:00 +12°C° 0.1 mm 2 mps 755 mmHg 85%
    21:00 +12°C° 0 mm 2 mps 755 mmHg 86%
    22:00 +10°C° 0 mm 2 mps 755 mmHg 87%
    23:00 +9°C° 0 mm 2 mps 755 mmHg 88%

    Tomorrow, 29 May, Friday

    Time Temperature Precipitation Wind Pressure Humidity
    00:00 +8°C° 0 mm 2 mps 756 mmHg 89%
    01:00 +8°C° 0 mm 2 mps 756 mmHg 89%
    02:00 +7°C° 0 mm 2 mps 756 mmHg 90%
    03:00 +7°C° 0 mm 2 mps 755 mmHg 88%
    04:00 +8°C° 0 mm 3 mps 755 mmHg 86%
    05:00 +8°C° 0 mm 3 mps 755 mmHg 84%
    06:00 +10°C° 0 mm 3 mps 755 mmHg 75%
    07:00 +12°C° 0 mm 4 mps 755 mmHg 67%
    08:00 +13°C° 0 mm 4 mps 755 mmHg 58%
    09:00 +15°C° 0 mm 5 mps 755 mmHg 53%
    10:00 +16°C° 0 mm 5 mps 754 mmHg 48%
    11:00 +17°C° 0 mm 5 mps 754 mmHg 43%
    12:00 +19°C° 0 mm 5 mps 754 mmHg 42%
    13:00 +19°C° 0 mm 5 mps 754 mmHg 42%
    14:00 +19°C° 0 mm 5 mps 754 mmHg 41%
    15:00 +19°C° 0 mm 5 mps 754 mmHg 44%
    16:00 +17°C° 0 mm 5 mps 753 mmHg 47%
    17:00 +18°C° 0 mm 4 mps 753 mmHg 50%
    18:00 +17°C° 0 mm 4 mps 753 mmHg 53%
    19:00 +15°C° 0 mm 4 mps 753 mmHg 55%
    20:00 +14°C° 0 mm 4 mps 753 mmHg 58%
    21:00 +14°C° 0 mm 5 mps 753 mmHg 56%
    22:00 +13°C° 0 mm 5 mps 753 mmHg 55%
    23:00 +13°C° 0 mm 5 mps 753 mmHg 53%

    Day after tomorrow, 30 May, Saturday

    Time Temperature Precipitation Wind Pressure Humidity
    00:00 +12°C° 0 mm 5 mps 753 mmHg 54%
    01:00 +12°C° 0 mm 5 mps 753 mmHg 54%
    02:00 +10°C° 0 mm 5 mps 753 mmHg 55%
    03:00 +10°C° 0 mm 5 mps 753 mmHg 60%
    04:00 +9°C° 0 mm 5 mps 753 mmHg 64%
    05:00 +9°C° 0 mm 5 mps 753 mmHg 69%
    06:00 +10°C° 0 mm 5 mps 753 mmHg 67%
    07:00 +13°C° 0 mm 5 mps 754 mmHg 64%
    08:00 +14°C° 0 mm 5 mps 754 mmHg 62%
    09:00 +16°C° 0 mm 6 mps 754 mmHg 56%
    10:00 +17°C° 0 mm 6 mps 754 mmHg 50%
    11:00 +20°C° 0 mm 7 mps 754 mmHg 45%
    12:00 +20°C° 0 mm 7 mps 753 mmHg 44%
    13:00 +20°C° 0 mm 7 mps 753 mmHg 43%
    14:00 +21°C° 0 mm 7 mps 753 mmHg 42%
    15:00 +20°C° 0 mm 6 mps 753 mmHg 43%
    16:00 +20°C° 0 mm 6 mps 753 mmHg 45%
    17:00 +20°C° 0 mm 6 mps 753 mmHg 46%
    18:00 +19°C° 0 mm 5 mps 753 mmHg 52%
    19:00 +16°C° 0 mm 5 mps 753 mmHg 58%
    20:00 +15°C° 0 mm 4 mps 753 mmHg 64%
    21:00 +14°C° 0 mm 4 mps 753 mmHg 64%
    22:00 +14°C° 0 mm 4 mps 753 mmHg 64%
    23:00 +13°C° 0 mm 4 mps 754 mmHg 64%

    31 May, Sunday

    Time Temperature Precipitation Wind Pressure Humidity
    00:00 +13°C° 0 mm 4 mps 754 mmHg 65%
    01:00 +12°C° 0 mm 5 mps 754 mmHg 66%
    02:00 +12°C° 0 mm 5 mps 754 mmHg 68%
    03:00 +10°C° 0 mm 5 mps 754 mmHg 68%
    04:00 +10°C° 0 mm 5 mps 754 mmHg 68%
    05:00 +10°C° 0 mm 5 mps 754 mmHg 68%
    06:00 +13°C° 0 mm 6 mps 755 mmHg 63%
    07:00 +14°C° 0 mm 6 mps 755 mmHg 58%
    08:00 +16°C° 0 mm 6 mps 755 mmHg 53%
    09:00 +17°C° 0 mm 6 mps 755 mmHg 50%
    10:00 +19°C° 0 mm 6 mps 755 mmHg 47%
    11:00 +20°C° 0 mm 6 mps 755 mmHg 44%
    12:00 +20°C° 0 mm 6 mps 755 mmHg 43%
    13:00 +21°C° 0 mm 6 mps 755 mmHg 43%
    14:00 +21°C° 0 mm 6 mps 755 mmHg 42%
    15:00 +21°C° 0 mm 6 mps 755 mmHg 44%
    16:00 +21°C° 0 mm 6 mps 755 mmHg 45%
    17:00 +20°C° 0 mm 5 mps 755 mmHg 46%
    18:00 +19°C° 0 mm 5 mps 755 mmHg 52%
    19:00 +17°C° 0 mm 4 mps 756 mmHg 57%
    20:00 +15°C° 0 mm 4 mps 756 mmHg 63%
    21:00 +14°C° 0 mm 4 mps 756 mmHg 64%
    22:00 +13°C° 0 mm 3 mps 757 mmHg 65%
    23:00 +12°C° 0 mm 3 mps 757 mmHg 66%

    1 June, Monday

    Time Temperature Precipitation Wind Pressure Humidity
    00:00 +11°C° 0 mm 3 mps 757 mmHg 70%
    01:00 +10°C° 0 mm 3 mps 757 mmHg 74%
    02:00 +9°C° 0 mm 2 mps 758 mmHg 79%
    03:00 +10°C° 0 mm 3 mps 758 mmHg 79%
    04:00 +10°C° 0 mm 3 mps 758 mmHg 79%
    05:00 +10°C° 0 mm 3 mps 758 mmHg 79%
    06:00 +12°C° 0 mm 3 mps 758 mmHg 73%
    07:00 +13°C° 0 mm 4 mps 758 mmHg 66%
    08:00 +15°C° 0 mm 4 mps 758 mmHg 59%
    09:00 +17°C° 0 mm 4 mps 758 mmHg 55%
    10:00 +19°C° 0 mm 5 mps 758 mmHg 52%
    11:00 +20°C° 0 mm 5 mps 758 mmHg 48%
    12:00 +20°C° 0.1 mm 4 mps 757 mmHg 50%
    13:00 +20°C° 0.1 mm 4 mps 757 mmHg 53%
    14:00 +20°C° 0.1 mm 3 mps 757 mmHg 55%
    15:00 +20°C° 0.2 mm 3 mps 757 mmHg 59%
    16:00 +19°C° 0.2 mm 3 mps 756 mmHg 64%
    17:00 +19°C° 0.2 mm 3 mps 756 mmHg 68%
    18:00 +18°C° 0.1 mm 2 mps 756 mmHg 74%
    19:00 +17°C° 0.1 mm 2 mps 756 mmHg 80%
    20:00 +15°C° 0.1 mm 1 mps 756 mmHg 85%
    21:00 +14°C° 0 mm 1 mps 756 mmHg 88%
    22:00 +13°C° 0 mm 1 mps 757 mmHg 91%
    23:00 +12°C° 0 mm 1 mps 757 mmHg 94%

    2 June, Tuesday

    Time Temperature Precipitation Wind Pressure Humidity
    00:00 +11°C° 0 mm 1 mps 757 mmHg 94%
    01:00 +11°C° 0 mm 1 mps 757 mmHg 94%
    02:00 +11°C° 0 mm 1 mps 757 mmHg 94%
    03:00 +11°C° 0 mm 1 mps 756 mmHg 93%
    04:00 +11°C° 0 mm 1 mps 756 mmHg 92%
    05:00 +12°C° 0 mm 1 mps 756 mmHg 91%
    06:00 +14°C° 0 mm 2 mps 756 mmHg 83%
    07:00 +16°C° 0 mm 2 mps 756 mmHg 75%
    08:00 +17°C° 0 mm 3 mps 756 mmHg 66%
    09:00 +18°C° 0 mm 3 mps 756 mmHg 62%
    10:00 +19°C° 0 mm 3 mps 756 mmHg 57%
    11:00 +20°C° 0 mm 4 mps 756 mmHg 52%
    12:00 +21°C° 0 mm 4 mps 756 mmHg 50%
    13:00 +21°C° 0 mm 4 mps 755 mmHg 47%
    14:00 +22°C° 0 mm 4 mps 755 mmHg 45%
    15:00 +22°C° 0 mm 3 mps 755 mmHg 46%
    16:00 +21°C° 0 mm 3 mps 755 mmHg 46%
    17:00 +21°C° 0 mm 3 mps 754 mmHg 47%
    18:00 +19°C° 0 mm 2 mps 754 mmHg 55%
    19:00 +17°C° 0 mm 2 mps 754 mmHg 63%
    20:00 +16°C° 0 mm 1 mps 754 mmHg 72%
    21:00 +14°C° 0 mm 1 mps 754 mmHg 73%
    22:00 +13°C° 0 mm 1 mps 754 mmHg 75%
    23:00 +11°C° 0 mm 0 mps 754 mmHg 76%
    Show more